sanya , China , ASIA

  • Sunday
    June 16

      Thundershower

      81 °F

      No wind

       

  • Monday
    June 17

    Overcast  Thundershower

    91 °F  82 °F

    No wind  No wind

        

  • Tuesday
    June 18

    Cloudy  Thundershower

    91 °F  82 °F

    No wind  No wind

        

  • Wednesday
    June 19

    Thundershower  Cloudy

    93 °F  82 °F

    No wind  No wind

        

  • Thursday
    June 20

    Cloudy  Cloudy

    93 °F  82 °F

    No wind  No wind

        

  • Friday
    June 21

    Cloudy  Cloudy

    93 °F  82 °F

    No wind  South

       3~4L 

  • Saturday
    June 22

    Cloudy  Cloudy

    93 °F  82 °F

    No wind  No wind

        

Date   Weather Temperature Humidity Total_rain Visibility Wind
23:00 Thundershower 81°F 98.4% 2.3mm 999.9km Southeast  2.8m/s
02:00 Thundershower 81°F 98.6% 2.3mm 999.9km Southwest  2.4m/s
05:00 Thundershower 83°F 99.3% 2.3mm 999.9km Southwest  4.2m/s
08:00 Thundershower 84°F 98% 2.3mm 999.9km Southwest  1.6m/s
11:00 Overcast 90°F 93% 0mm 999.9km Southwest  2.2m/s
14:00 Overcast 91°F 92.1% 0mm 999.9km Southwest  2.5m/s
17:00 Overcast 89°F 93.3% 0mm 999.9km Southwest  2.4m/s
20:00 Overcast 81°F 86.4% 0mm 999.9km Southeast  3.3m/s
23:00 Overcast 83°F 98.9% 0mm 999.9km Southeast  3.7m/s
02:00 Thundershower 83°F 99% 0.1mm 999.9km Southeast  2.4m/s
05:00 Thundershower 83°F 99% 0.3mm 999.9km Southeast  2.3m/s
08:00 Thundershower 83°F 98.3% 0.2mm 999.9km Southeast  2.2m/s
11:00 Cloudy 90°F 96% 0mm 999.9km Southwest  2.8m/s
14:00 Cloudy 91°F 93.2% 0mm 999.9km Southeast  2.6m/s
17:00 Cloudy 88°F 95.5% 0mm 999.9km Southeast  2.8m/s
20:00 Cloudy 83°F 100% 0mm 999.9km Southeast  3.5m/s
23:00 Cloudy 84°F 98.1% 0mm 999.9km Southeast  4.1m/s
02:00 Thundershower 83°F 98.6% 0.1mm 999.9km Southeast  2.9m/s
05:00 Thundershower 83°F 98.9% 0.7mm 999.9km Southeast  2.8m/s
08:00 Thundershower 86°F 97.9% 0.5mm 999.9km Southwest  2.1m/s
11:00 Thundershower 93°F 93.7% 0.3mm 999.9km Southwest  1.7m/s
14:00 Thundershower 92°F 93.4% 0.7mm 999.9km Southwest  2.3m/s
17:00 Cloudy 90°F 94.6% 0mm 999.9km Southwest  2.9m/s
20:00 Cloudy 86°F 87.9% 0mm 999.9km Southeast  3.5m/s
23:00 Cloudy 84°F 99.1% 0mm 999.9km Southeast  3.0m/s
02:00 Cloudy 83°F 99% 0mm 999.9km South  2.3m/s
05:00 Cloudy 83°F 99% 0mm 999.9km Southwest  2.2m/s
08:00 Cloudy 85°F 99% 0mm 999.9km Southwest  1.6m/s
11:00 Cloudy 91°F 93.3% 0mm 999.9km Southwest  0.7m/s
14:00 Cloudy 93°F 91.7% 0mm 999.9km Southwest  2.7m/s
17:00 Cloudy 90°F 93.5% 0mm 999.9km Southeast  2.8m/s
20:00 Cloudy 86°F 86.5% 0mm 999.9km Southeast  4.5m/s
23:00 Cloudy 84°F 97.5% 0mm 999.9km Southeast  2.1m/s
02:00 Cloudy 83°F 98% 0mm 999.9km Southeast  3.3m/s
05:00 Cloudy 83°F 97.7% 0mm 999.9km Southeast  1.0m/s
08:00 Cloudy 86°F 96.6% 0mm 999.9km Southeast  2.0m/s
11:00 Cloudy 90°F 88.7% 0mm 999.9km Southwest  2.6m/s
14:00 Cloudy 93°F 89.1% 0mm 999.9km Southwest  3.0m/s
17:00 Cloudy 90°F 86.5% 0mm 999.9km Southeast  2.4m/s
20:00 Cloudy 84°F 84.2% 0mm 999.9km Southeast  3.3m/s
23:00 Cloudy 84°F 97.9% 0mm 999.9km Southeast  4.4m/s
02:00 Cloudy 83°F 98.4% 0mm 999.9km Southwest  2.0m/s
05:00 Cloudy 83°F 99.1% 0mm 999.9km Southeast  1.9m/s
08:00 Cloudy 87°F 97.9% 0mm 999.9km Southwest  2.3m/s
11:00 Cloudy 91°F 89.7% 0mm 999.9km Southeast  2.7m/s
14:00 Cloudy 93°F 90.9% 0mm 999.9km Southwest  3.5m/s
17:00 Cloudy 90°F 91.3% 0mm 999.9km Southeast  2.4m/s
20:00 Cloudy 87°F 84.6% 0mm 999.9km Southeast  2.8m/s
23:00 Cloudy 85°F 97.9% 0mm 999.9km Southeast  2.7m/s
02:00 Cloudy 83°F 98.8% 0mm 999.9km Southwest  3.0m/s
05:00 Cloudy 83°F 97.6% 0mm 999.9km Southeast  2.7m/s